Location: Palomar Mountain Lodge
(33.3110°N, 116.8495°W)
Time: 19:02:38
(UTC-07:00)

NOSS 3-4 (C) - Pass Details

Date: 19 May 2017
Orbit: 963 x 1250 km, 63.4° (Epoch: 18 August)

Event Time Altitude Azimuth Distance (km) Brightness Sun altitude
Rises 19:59:44 0° 198° (SSW) 3,643 6.4 -3.8°
Reaches altitude 10° 20:02:19 10° 194° (SSW) 2,688 5.7 -4.3°
Maximum altitude 20:08:26 60° 116° (ESE) 1,094 3.5 -5.5°
Drops below altitude 10° 20:14:40 10° 38° (NE) 2,738 5.8 -6.6°
Sets 20:17:19 0° 35° (NE) 3,716 6.5 -7.1°
